Left ArrowRight Arrow

-33.8178, 151.00348

Hourly Observations for January 22, 2016

Temp ( °F °C ) Dew Point ( °F °C ) Humidity (%) Winds ( mph kmh ) Pressure ( in mb ) Visibility ( mi km ) Precip ( " mm )
12:00 am 00:00 Mostly Cloudy 75 24 72 22 89 89 NNW 10 17 29.85 1011 30 48 N/A
12:30 am 00:30 Partly Cloudy 75 24 72 22 89 89 NNW 10 17 29.85 1011 30 48 N/A
1:00 am 01:00 Mostly Clear 75 24 72 22 89 89 NW 10 17 29.83 1010 30 48 N/A
1:30 am 01:30 Mostly Cloudy 73 23 72 22 94 94 NW 12 19 29.83 1010 30 48 N/A
2:00 am 02:00 Mostly Cloudy 73 23 72 22 94 94 NW 12 19 29.83 1010 30 48 N/A
2:30 am 02:30 Mostly Cloudy 73 23 72 22 94 94 NNW 10 17 29.80 1009 30 48 N/A
3:00 am 03:00 Mostly Cloudy 75 24 72 22 89 89 NNW 12 19 29.80 1009 30 48 N/A
3:30 am 03:30 Mostly Cloudy 75 24 72 22 89 89 N 10 17 29.77 1008 30 48 N/A
4:00 am 04:00 Mostly Cloudy 75 24 72 22 89 89 N 12 19 29.77 1008 30 48 N/A
4:30 am 04:30 Mostly Cloudy 75 24 70 21 83 83 NW 9 15 29.77 1008 30 48 N/A
5:00 am 05:00 Mostly Cloudy 75 24 70 21 83 83 NNW 8 13 29.77 1008 30 48 N/A
5:30 am 05:30 Mostly Cloudy 77 25 72 22 83 83 N 7 11 29.77 1008 30 48 N/A
6:00 am 06:00 Mostly Cloudy 75 24 72 22 89 89 WNW 5 7 29.77 1008 30 48 N/A
6:30 am 06:30 Mostly Sunny 75 24 72 22 89 89 SW 9 15 29.80 1009 7 11 N/A
7:00 am 07:00 Mostly Cloudy 73 23 72 22 94 94 SW 8 13 29.80 1009 30 48 N/A
7:30 am 07:30 Mostly Cloudy 75 24 72 22 89 89 WSW 6 9 29.80 1009 30 48 N/A
8:00 am 08:00 Mostly Cloudy 75 24 72 22 89 89 S 8 13 29.83 1010 30 48 N/A
8:30 am 08:30 Mostly Cloudy with Light Showers 75 24 73 23 94 94 S 17 28 29.83 1010 30 48 N/A
9:00 am 09:00 Mostly Cloudy 75 24 72 22 89 89 SSW 12 19 29.83 1010 30 48 N/A
9:30 am 09:30 Mostly Cloudy with Drizzle 75 24 72 22 89 89 S 9 15 29.83 1010 30 48 N/A
10:00 am 10:00 Mostly Cloudy 75 24 72 22 89 89 S 10 17 29.83 1010 30 48 N/A
10:30 am 10:30 Mostly Cloudy 77 25 72 22 83 83 S 12 19 29.83 1010 30 48 N/A
11:00 am 11:00 Mostly Cloudy 77 25 73 23 89 89 S 10 17 29.83 1010 30 48 N/A
11:30 am 11:30 Mostly Cloudy 77 25 72 22 83 83 S 10 17 29.80 1009 30 48 N/A
12:00 pm 12:00 Mostly Cloudy 77 25 72 22 83 83 S 12 19 29.80 1009 30 48 N/A
12:30 pm 12:30 Mostly Cloudy 77 25 72 22 83 83 S 7 11 29.80 1009 30 48 N/A
1:00 pm 13:00 Mostly Cloudy 79 26 72 22 79 79 SE 7 11 29.77 1008 30 48 N/A
1:30 pm 13:30 Mostly Cloudy 79 26 72 22 79 79 SSE 6 9 29.77 1008 30 48 N/A
2:00 pm 14:00 Mostly Cloudy with Light Showers 79 26 70 21 74 74 SSE 6 9 29.74 1007 30 48 N/A
2:30 pm 14:30 Mostly Cloudy with Showers Nearby 81 27 70 21 70 70 SSE 7 11 29.71 1006 30 48 N/A
3:00 pm 15:00 Mostly Cloudy with Light Showers and Scattered Storms 79 26 72 22 79 79 ESE 10 17 29.71 1006 30 48 N/A
3:30 pm 15:30 Mostly Cloudy with Light Showers and Scattered Storms 77 25 73 23 89 89 SE 8 13 29.71 1006 30 48 N/A
3:46 pm 15:46 Mostly Cloudy with Showers and Scattered Storms 77 25 73 23 89 89 S 6 9 29.71 1006 3 5 N/A
4:00 pm 16:00 Mostly Cloudy with Showers and Scattered Storms 75 24 73 23 94 94 ESE 8 13 29.71 1006 3 5 N/A
4:30 pm 16:30 Mostly Cloudy with Showers and Scattered Storms 75 24 72 22 89 89 N 6 9 29.74 1007 3 5 N/A
4:41 pm 16:41 Mostly Cloudy with Heavy Showers and Scattered Storms 77 25 73 23 89 89 N 5 7 29.74 1007 3 5 N/A
5:00 pm 17:00 Mostly Cloudy with Heavy Showers and Scattered Storms 75 24 73 23 94 94 NE 8 13 29.71 1006 30 48 N/A
5:17 pm 17:17 Mostly Cloudy with Light Showers and Scattered Storms 75 24 73 23 94 94 ENE 8 13 29.71 1006 30 48 N/A
5:30 pm 17:30 Mostly Cloudy with Drizzle and Scattered Storms 75 24 73 23 94 94 E 10 17 29.71 1006 30 48 N/A
6:00 pm 18:00 Mostly Cloudy with Light Showers and Scattered Storms 75 24 72 22 89 89 ENE 9 15 29.71 1006 6 9 N/A
6:02 pm 18:02 Mostly Cloudy with Light Showers and Scattered Storms 75 24 72 22 89 89 ENE 9 15 29.71 1006 30 48 N/A
6:13 pm 18:13 Mostly Cloudy with Showers and Scattered Storms 75 24 73 23 94 94 N 6 9 29.71 1006 30 48 N/A
6:30 pm 18:30 Mostly Cloudy with Light Showers and Scattered Storms 73 23 72 22 94 94 E 8 13 29.71 1006 30 48 N/A
6:49 pm 18:49 Mostly Cloudy with Light Showers and Scattered Storms 73 23 72 22 94 94 E 6 9 29.71 1006 6 9 N/A
7:00 pm 19:00 Mostly Cloudy with Showers and Scattered Storms 73 23 72 22 94 94 ENE 6 9 29.71 1006 30 48 N/A
7:30 pm 19:30 Mostly Cloudy with Light Showers and Scattered Storms 73 23 72 22 94 94 ENE 9 15 29.71 1006 30 48 N/A
8:00 pm 20:00 Mostly Cloudy with Light Showers and Scattered Storms 73 23 72 22 94 94 NE 13 20 29.71 1006 6 9 N/A
8:30 pm 20:30 Mostly Cloudy with Showers Nearby 73 23 70 21 89 89 NE 12 19 29.68 1005 30 48 N/A
8:41 pm 20:41 Mostly Cloudy with Light Showers 73 23 70 21 89 89 NE 12 19 29.68 1005 30 48 N/A
9:00 pm 21:00 Mostly Cloudy with Light Showers 75 24 72 22 89 89 N 9 15 29.71 1006 30 48 N/A
9:30 pm 21:30 Mostly Cloudy with Light Showers 75 24 72 22 89 89 N 12 19 29.71 1006 30 48 N/A
10:00 pm 22:00 Mostly Cloudy with Light Showers 73 23 72 22 94 94 N 10 17 29.71 1006 30 48 N/A
10:30 pm 22:30 Mostly Cloudy with Light Showers 75 24 72 22 89 89 N 8 13 29.71 1006 30 48 N/A
11:00 pm 23:00 Mostly Cloudy 75 24 72 22 89 89 N 8 13 29.68 1005 30 48 N/A
11:30 pm 23:30 Mostly Cloudy 75 24 72 22 89 89 N 6 9 29.68 1005 30 48 N/A

Powered by Vaisala Xweather